User: anonymous   Login
Location: Unspecified
(0.0000°N, 0.0000°E)
Time: 22:26:46
(UTC+00:00)
Language:

STARLINK-32538 - Orbit

View from above orbital plane
View from above orbital plane
View from above satellite
View from above satellite

Ground track
Ground track

The orbit is defined by the following mean orbital elements,

1 62170U          26144.94208168 +.00000000 +00000-0 +24273-3 0 00005
2 62170  70.0018 332.3268 0002687 267.4844  92.6008 14.98337375    04
Epoch (UTC): 24 May 2026 22:36:35
Eccentricity: 0.0002687
inclination: 70.0018°
perigee height: 570 km
apogee height: 574 km
right ascension of ascending node: 332.3268°
argument of perigee: 267.4844°
revolutions per day: 14.98337375
mean anomaly at epoch: 92.6008°

The dashed part of the orbit path shows where the satellite is in the earth's shadow,  

DLR